This is the latest recevied weather packets stored in our database for station/object VE7GEL. If no packets are shown the sender has not sent any weather packets the latest 10 day(s).
| Time | Temp. | Humidity | Pressure | Rain* | Wind** | Luminosity | Snow |
|---|---|---|---|---|---|---|---|
| 1777224529 | 11.11° C | 73% | 1009.4 hPa | 0 mm | - | 26 W/m² | - |
| 1777223629 | 11.11° C | 77% | 1009.3 hPa | 0 mm | - | 25 W/m² | - |
| 1777222730 | 12.22° C | 77% | 1009.3 hPa | 0 mm | - | 23 W/m² | - |
| 1777221903 | 12.22° C | 73% | 1009.6 hPa | 0 mm | - | 22 W/m² | - |
| 1777221830 | 12.22° C | 73% | 1009.3 hPa | 0 mm | - | 22 W/m² | - |
| 1777221004 | 12.22° C | 72% | 1009.6 hPa | 0 mm | - | 21 W/m² | - |
| 1777220926 | 12.22° C | 72% | 1009.3 hPa | 0 mm | - | 21 W/m² | - |
| 1777220103 | 11.67° C | 72% | 1009.6 hPa | 0 mm | - | 21 W/m² | - |
| 1777220029 | 11.67° C | 72% | 1009.3 hPa | 0 mm | - | 21 W/m² | - |
| 1777219128 | 11.67° C | 69% | 1009.4 hPa | 0 mm | - | 20 W/m² | - |
| 1777218302 | 12.22° C | 61% | 1009.7 hPa | 0 mm | - | 19 W/m² | - |
| 1777218225 | 11.67° C | 61% | 1009.3 hPa | 0 mm | - | 19 W/m² | - |
| 1777217325 | 11.11° C | 64% | 1009.2 hPa | 0 mm | - | 19 W/m² | - |
| 1777216503 | 10.56° C | 66% | 1009.4 hPa | 0 mm | - | 18 W/m² | - |
| 1777216423 | 10.56° C | 66% | 1009.1 hPa | 0 mm | - | 17 W/m² | - |
| 1777215522 | 10° C | 68% | 1009 hPa | 0 mm | - | 22 W/m² | - |
| 1777214622 | 10° C | 67% | 1008.9 hPa | 0 mm | - | 17 W/m² | - |
| 1777213720 | 9.44° C | 66% | 1008.8 hPa | 0 mm | - | 16 W/m² | - |
| 1777212819 | 8.89° C | 65% | 1008.7 hPa | 0 mm | - | 15 W/m² | - |
| 1777211919 | 8.89° C | 70% | 1008.6 hPa | 0 mm | - | 13 W/m² | - |
| 1777211020 | 8.89° C | 69% | 1008.5 hPa | 0 mm | - | 11 W/m² | - |
| 1777210122 | 8.33° C | 71% | 1008.3 hPa | 0 mm | - | 7 W/m² | - |
| 1777209219 | 8.89° C | 68% | 1008.3 hPa | 0 mm | - | 3 W/m² | - |
| 1777208318 | 9.44° C | 72% | 1008.2 hPa | 0 mm | - | 0 W/m² | - |
| 1777207418 | 9.44° C | 64% | 1008.2 hPa | 0 mm | - | 0 W/m² | - |
* Rain latest hour (hover to see other rain measurements)
** Current wind speed in m/s (hover to see current wind gust speed)